Weather History for Aberdeen, SD

Change the Weather History Date:

Monday, January 7, 2013

  Actual Average Record
Temperature  
Mean Temperature 23 °F 12 °F  
Max Temperature 35 °F 22 °F 54 °F (1963)
Min Temperature 10 °F 2 °F -39 °F (1912)
Degree Days  
Heating Degree Days 42 53  
Month to date heating degree days 352 371  
Since 1 July heating degree days 3776 3862  
Cooling Degree Days 0 0  
Month to date cooling degree days 0 0  
Year to date cooling degree days 0 0  
Moisture  
Dew Point 18 °F    
Average Humidity 76    
Maximum Humidity 92    
Minimum Humidity 59    
Precipitation  
Precipitation 0.00 in 0.02 in 0.46 in (1992)
Month to date precipitation T 0.13  
Year to date precipitation T 0.13  
Snow  
Snow 0.00 in - - ()
Month to date snowfall T  
Since 1 July snowfall 13.9  
Snow Depth 3.00 in    
Sea Level Pressure  
Sea Level Pressure 29.94 in    
Wind  
Wind Speed 8 mph (SSW)    
Max Wind Speed 15 mph    
Max Gust Speed 18 mph    
Visibility 10 miles    
Events      
T = Trace of Precipitation, MM = Missing Value Source: NWS Daily Summary

Daily Weather History Graph

Daily Weather History Graph

Search for Another Location

Airport:

Trip Planner

Search our weather history database for the weather conditions in past years. The results will help you decide how hot, cold, wet, or windy it might be!

Date:

Astronomy

Jan. 07, 2013 Rise Set
Actual Time 8:12 AM CST 5:07 PM CST
Civil Twilight 7:39 AM CST 5:41 PM CST
Nautical Twilight 7:02 AM CST 6:18 PM CST
Astronomical Twilight 6:26 AM CST 6:54 PM CST
Moon 3:35 AM CST (1/7) 1:22 PM CST (1/7)
Length of Visible Light 10h 02m
Length of Day
8h 54m
Waning Crescent, 22% of the Moon is Illuminated
Jan 7
Waning Crescent
Jan 11
New
Jan 18
First Quarter
Jan 26
Full
Feb 3
Last Quarter

Hourly Weather History & Observations

Time (CST) Temp. Windchill Dew Point Humidity Pressure Visibility Wind Dir Wind Speed Gust Speed Precip Events Conditions
12:53 AM 16.0 °F 5.3 °F 12.0 °F 84% 29.87 in 10.0 mi SW 8.1 mph - N/A   Clear
1:53 AM 16.0 °F 8.8 °F 12.0 °F 84% 29.88 in 10.0 mi SSW 4.6 mph - N/A   Clear
2:53 AM 14.0 °F 2.9 °F 9.0 °F 80% 29.89 in 10.0 mi South 8.1 mph - N/A   Clear
3:53 AM 17.1 °F 8.7 °F 12.0 °F 81% 29.90 in 10.0 mi South 5.8 mph - N/A   Clear
4:53 AM 19.9 °F 10.1 °F 14.0 °F 78% 29.89 in 10.0 mi South 8.1 mph - N/A   Partly Cloudy
5:53 AM 19.9 °F 10.1 °F 14.0 °F 78% 29.90 in 10.0 mi South 8.1 mph - N/A   Partly Cloudy
6:53 AM 18.0 °F 11.1 °F 12.9 °F 81% 29.93 in 10.0 mi SSW 4.6 mph - N/A   Clear
7:53 AM 16.0 °F 5.3 °F 12.0 °F 84% 29.95 in 10.0 mi South 8.1 mph - N/A   Clear
8:53 AM 12.0 °F 2.7 °F 8.1 °F 84% 29.97 in 10.0 mi SW 5.8 mph - N/A   Clear
9:53 AM 23.0 °F 12.4 °F 15.1 °F 72% 29.98 in 10.0 mi WSW 10.4 mph - N/A   Clear
10:53 AM 25.0 °F 16.3 °F 17.1 °F 72% 29.98 in 10.0 mi WSW 8.1 mph - N/A   Clear
11:53 AM 28.9 °F 19.2 °F 19.9 °F 69% 29.96 in 10.0 mi WSW 11.5 mph - N/A   Clear
12:53 PM 30.0 °F 19.5 °F 21.0 °F 69% 29.95 in 10.0 mi WSW 13.8 mph - N/A   Clear
1:53 PM 32.0 °F 23.6 °F 23.0 °F 69% 29.94 in 10.0 mi WSW 10.4 mph - N/A   Clear
2:53 PM 33.1 °F 24.4 °F 24.1 °F 70% 29.94 in 10.0 mi West 11.5 mph - N/A   Partly Cloudy
3:53 PM 33.1 °F 25.5 °F 24.1 °F 70% 29.95 in 10.0 mi West 9.2 mph - N/A   Scattered Clouds
4:53 PM 33.1 °F 24.9 °F 25.0 °F 72% 29.95 in 10.0 mi WSW 10.4 mph - N/A   Overcast
5:53 PM 32.0 °F 25.6 °F 24.1 °F 73% 29.96 in 10.0 mi West 6.9 mph - N/A   Overcast
6:53 PM 35.1 °F 31.0 °F 23.0 °F 61% 29.95 in 10.0 mi WNW 4.6 mph - N/A   Overcast
7:53 PM 28.0 °F 20.8 °F 23.0 °F 81% 29.97 in 10.0 mi ESE 6.9 mph - N/A   Overcast
8:53 PM 26.1 °F 18.4 °F 21.9 °F 84% 29.97 in 10.0 mi South 6.9 mph - N/A   Mostly Cloudy
9:53 PM 21.9 °F 13.4 °F 19.0 °F 89% 29.96 in 10.0 mi SSE 6.9 mph - N/A   Overcast
10:53 PM 23.0 °F 15.8 °F 19.0 °F 85% 29.96 in 10.0 mi SSE 5.8 mph - N/A   Overcast
11:53 PM 19.0 °F 8.2 °F 16.0 °F 88% 29.94 in 10.0 mi SSE 9.2 mph - N/A   Partly Cloudy